Simultaneous Nadir Overpasses (SNOs) Predictions

Prediction of SNOs between METOP-B and TERRA Satellite Orbit:

Table of predicted SNOs for the next 14.0 days since TLE Epoch: 9/17/2022
Index Date (METOP-B) Time (METOP-B) Lat,Lon (METOP-B) SZA (METOP-B ) Date (TERRA) Time (TERRA) Lat,Lon (TERRA) SZA (TERRA ) Distance(km) Time Diff (sec)
1 09/17/2022 18:29:42 81.06, -59.07 81.07 09/17/2022 18:29:45 81.06, -59.04 81.07 0.64 3
2 09/17/2022 19:20:21 -81.08, 108.94 98.84 09/17/2022 19:19:11 -81.08, 108.89 98.88 1.24 70
3 09/20/2022 13:13:27 -81.04,-160.49 97.90 09/20/2022 13:14:27 -81.04,-160.49 97.88 0.31 60
4 09/20/2022 14:04:06 81.07, 7.48 82.20 09/20/2022 14:03:52 81.06, 7.51 82.19 0.52 14
5 09/23/2022 08:47:52 -81.05, -93.94 96.77 09/23/2022 08:48:35 -81.04, -94.02 96.77 1.54 43
6 09/23/2022 09:38:31 81.07, 73.99 83.33 09/23/2022 09:38:00 81.06, 73.96 83.31 0.79 31
7 09/26/2022 04:22:17 -81.05, -27.44 95.64 09/26/2022 04:22:42 -81.06, -27.31 95.61 2.58 25
8 09/26/2022 05:12:55 81.09, 140.83 84.50 09/26/2022 05:12:07 81.08, 140.66 84.46 3.04 48
9 09/28/2022 23:56:41 -81.05, 39.02 94.52 09/28/2022 23:56:49 -81.05, 38.95 94.53 1.33 8



Historial Predications of SNOs between METOP-B and TERRA
